星链-1351 (STARLINK-1351 )
导读
STARLINK-1351是美国太空探索技术公司(SpaceX)星链星座中的一颗卫星,于2020年6月4日发射入轨,归属美国。星链项目旨在构建全球卫星互联网,该卫星承担着为全球尤其是偏远地区提供宽带网络服务的任务,属于低轨通信卫星,推动了全球互联网络基础设施的建设。
Basic Information
目录编号:
45697
目录名称:
STARLINK-1351
国际标识:
2020-035AS
轨道中心:
EARTH
卫星名称:
星链-1351
卫星全名:
星链-1351 (STARLINK-1351 )
卫星状态:
在轨 (已飞行2284 天)
发射日期:
2020-06-04 UTC
国别 :
美国
(US)
星等 :
--
Orbit Information
| 数据来源 | 国际轨道数据 |
| 星历时间: | 2026-09-05T15:07:56+0800 6小时前 查看轨道信息 |
| 半长轴: | 6719.935km |
| 偏心率: | 0.0006105 |
| 轨道倾角: | 53.035° |
| 近地点辐角 | 68.176° |
| 升交点赤经 | 219.348° |
| 平近点角 | 291.991° |
| 近地点: | 337.695km |
| 远地点: | 345.901km |
| 周期: | 91.371分钟 |
| 每日圈数: | 15.759962 |
Detailed Information
固有亮度:
5
最大亮度:
2.5
卫星平台:
Starlink V1.0
覆盖范围:
全球
运营商:
太空探索技术公司
运营商所在国:
美国
制造商(研发单位):
太空探索技术公司
制造商所在国:
美国
使用方式:
暂无
Satellite Introduction
星链(Starlink)计划是由太空探索技术公司(SpaceX)提出的一个巨型低轨卫星互联网星座项目,计划在2019年至2024年间在太空搭建由约1.2万颗卫星组成的“星链”网络,其中1584颗将部署在地球上空550千米处的近地轨道,并从2020年开始工作。该卫星仍在工作。
2D Orbit Map
3D Orbit Map
Orbit Altitude Analysis Chart
Orbit Inclination Analysis Chart
Orbit Comprehensive Analysis Chart
View Comprehensive ChartConjunction Data List
| Event ID | Objects | TCA | Miss Dist (km) | Collision Risk Probability | Collision Risk Index (CRI) | Action |
|---|---|---|---|---|---|---|
| CDM_260907-052604-569705-349021 |
STARLINK-1351
(45697)
STARLINK-4387
(53490) | 2026-09-07T 05:26:52+0000 |
0.599 km
远距离 | 1.320418E-4 高风险 | 0.77 |

